Flag for United Kingdom Weather past 2 weeks in Manchester, England, United Kingdom

Now
39 °F

Partly cloudy.


Feels Like: 32 °F
Forecast: 40 / 50 °F
Wind: 12 mph from Southwest

Location: Manchester Airport

Current Time: Apr 28, 2015 at 4:21:02 AM

Latest Report: Apr 28, 2015 at 3:50 AM


Visibility: N/A

Pressure: 29.83 "Hg

Humidity: 87%

Dew point: 36 °F

Location of ManchesterLocation

Historic Weather in Manchester — Graph

°F

Manchester temperature yesterday

Maximum temperature yesterday: 52 °F (at 1:50 PM)
Minimum temperature yesterday: 28 °F (at 5:50 AM)
Average temperature yesterday: 41 °F

Past Weeks' High & Low Weather Summary

 TemperatureHumidityPressure
High66 °F (Apr 21, 2:50 PM)100% (Apr 13, 3:20 AM)30.60 "Hg (Apr 13, 3:20 AM)
Low28 °F (Apr 27, 5:50 AM)30% (Apr 23, 5:20 PM)29.56 "Hg (Apr 25, 5:50 AM)
Average49 °F71%30.14 "Hg
* Reported Apr 13 3:20 AM — Apr 28 3:20 AM, Manchester, Weather by CustomWeather, © 2015

Note: Actual official high and low records may vary slightly from our data, if they occured in-between our weather recording intervals... More about our weather records

Advertising

Manchester weather history for previous 24 hours

 ConditionsComfort  
Time TempWeatherWind HumidityBarometerVisibility
3:20 AM
Tue, Apr 28
39 °FPartly cloudy.14 mph87%29.83 "HgN/A
2:50 AM39 °FPassing clouds.13 mph87%29.83 "HgN/A
2:20 AM39 °FPartly cloudy.14 mph81%29.83 "HgN/A
1:50 AM37 °FLight rain. Partly cloudy.13 mph81%29.83 "HgN/A
1:20 AM37 °FPassing clouds.13 mph81%29.83 "HgN/A
12:50 AM37 °FPassing clouds.9 mph87%29.83 "HgN/A
12:20 AM37 °FPassing clouds.9 mph87%29.83 "HgN/A
11:50 PM
Mon, Apr 27
37 °FPassing clouds.10 mph87%29.83 "HgN/A
11:20 PM36 °FPassing clouds.9 mph93%29.83 "HgN/A
10:50 PM36 °FPassing clouds.8 mph93%29.83 "HgN/A
9:50 PM39 °FPassing clouds.9 mph87%29.83 "HgN/A
9:20 PM39 °FPassing clouds.9 mph87%29.83 "HgN/A
8:50 PM41 °FSprinkles. Passing clouds.10 mph87%29.83 "HgN/A
8:20 PM43 °FLight rain. Partly sunny.22 mph76%29.80 "HgN/A
7:50 PM46 °FPassing clouds.10 mph57%29.80 "HgN/A
7:20 PM46 °FPassing clouds.13 mph57%29.77 "HgN/A
6:50 PM48 °FPassing clouds.12 mph54%29.80 "HgN/A
6:20 PM46 °FPassing clouds.12 mph57%29.80 "HgN/A
5:50 PM46 °FScattered showers. Passing clouds.16 mph57%29.80 "HgN/A
5:20 PM50 °FPassing clouds.14 mph43%29.80 "HgN/A
4:50 PM50 °FPassing clouds.15 mph43%29.80 "HgN/A
4:20 PM50 °FPassing clouds.10 mph43%29.80 "HgN/A
3:50 PM52 °FPassing clouds.9 mph44%29.80 "HgN/A
3:20 PM50 °FPassing clouds.10 mph43%29.83 "HgN/A
2:50 PM50 °FScattered clouds.9 mph37%29.83 "HgN/A
2:20 PM52 °FCool.10 mph32%29.83 "HgN/A
1:50 PM52 °FPassing clouds.8 mph30%29.86 "HgN/A
1:20 PM50 °FPassing clouds.8 mph30%29.86 "HgN/A
12:50 PM50 °FPassing clouds.12 mph30%29.86 "HgN/A
12:20 PM50 °FPassing clouds.8 mph40%29.86 "HgN/A
11:50 AM48 °FPassing clouds.9 mph40%29.89 "HgN/A
11:20 AM48 °FPassing clouds.8 mph43%29.89 "HgN/A
10:50 AM46 °FPassing clouds.8 mph50%29.89 "HgN/A
10:20 AM45 °FPassing clouds.7 mph57%29.89 "HgN/A
9:50 AM45 °FPassing clouds.6 mph57%29.89 "Hg10 mi
9:20 AM43 °FPassing clouds.3 mph66%29.89 "HgN/A
8:50 AM41 °FSunny.2 mph76%29.89 "Hg10 mi
8:20 AM37 °FSunny.3 mph87%29.89 "Hg10 mi
7:50 AM36 °FSunny.5 mph93%29.89 "Hg10 mi
7:20 AM34 °FSunny.3 mph93%29.89 "Hg10 mi
6:50 AM32 °FSunny.3 mph93%29.89 "Hg10 mi
6:20 AM30 °FClear.2 mph93%29.86 "Hg10 mi
5:50 AM28 °FClear.3 mph100%29.86 "Hg10 mi
5:20 AM30 °FClear.2 mph93%29.86 "Hg10 mi
4:50 AM30 °FClear.2 mph93%29.86 "Hg10 mi
4:20 AM30 °FClear.No wind93%29.86 "Hg10 mi
Weather by CustomWeather, © 2015

See weather overviewHow to use our weather pages